Estación Meteorológica de la Universidad de Murcia
Estación Meteorológica de la Universidad de Murcia
Universidad de Murcia
 

Tanque evaporímetroTanque evaporímetro

 

Máxima: 0,6 mm a las 18:01:00 del día 21/08/2019

||Evaporación máxima últimos meses|| ---- ||Evaporación mínima últimos meses||


Evaporación máxima

  • 1 - 0,6 mm del día 21/08/2019
  • 2 - 1,1 mm del día 20/08/2019
  • 3 - 0,8 mm del día 19/08/2019
  • 4 - 1,6 mm del día 18/08/2019
  • 5 - 1,3 mm del día 17/08/2019
  • 6 - 0,9 mm del día 16/08/2019
  • 7 - 1 mm del día 15/08/2019
  • 8 - 1,3 mm del día 14/08/2019
  • 9 - 0,7 mm del día 13/08/2019
  • 10 - 0,8 mm del día 12/08/2019
  • 11 - 0,8 mm del día 11/08/2019
  • 12 - 1,2 mm del día 10/08/2019
  • 13 - 0,8 mm del día 09/08/2019
  • 14 - 1,4 mm del día 08/08/2019
  • 15 - 0,6 mm del día 07/08/2019
  • 16 - 0,9 mm del día 06/08/2019
  • 17 - 0,8 mm del día 05/08/2019
  • 18 - 0,8 mm del día 04/08/2019
  • 19 - 0,9 mm del día 03/08/2019
  • 20 - 0,7 mm del día 02/08/2019
  • 21 - 0,6 mm del día 01/08/2019
  • 22 - 0,4 mm del día 31/07/2019
  • 23 - 0,7 mm del día 30/07/2019
  • 24 - 0,8 mm del día 29/07/2019
  • 25 - 0,8 mm del día 28/07/2019
  • 26 - 1 mm del día 27/07/2019
  • 27 - 1,3 mm del día 26/07/2019
  • 28 - 1,2 mm del día 25/07/2019
  • 29 - 1,1 mm del día 24/07/2019
  • 30 - 0,9 mm del día 23/07/2019
  • 31 - 0,8 mm del día 22/07/2019
  • 32 - 0,8 mm del día 21/07/2019
  • 33 - 0,5 mm del día 20/07/2019
  • 34 - 0,8 mm del día 19/07/2019
  • 35 - 0,7 mm del día 18/07/2019
  • 36 - 33,6 mm del día 17/07/2019
  • 37 - 0,6 mm del día 16/07/2019
  • 38 - 0,9 mm del día 15/07/2019
  • 39 - 1,3 mm del día 14/07/2019
  • 40 - 0,9 mm del día 13/07/2019
  • 41 - 1 mm del día 12/07/2019
  • 42 - 0,9 mm del día 11/07/2019
  • 43 - 1 mm del día 10/07/2019
  • 44 - 1,3 mm del día 09/07/2019
  • 45 - 0,9 mm del día 08/07/2019
  • 46 - 0,8 mm del día 07/07/2019
  • 47 - 0,7 mm del día 06/07/2019
  • 48 - 0,7 mm del día 05/07/2019
  • 49 - 0,8 mm del día 04/07/2019
  • 50 - 0,7 mm del día 03/07/2019
  • 51 - 0,7 mm del día 02/07/2019
  • 52 - 0,8 mm del día 01/07/2019
  • 53 - 0,8 mm del día 30/06/2019
  • 54 - 0,9 mm del día 29/06/2019
  • 55 - 0,2 mm del día 28/06/2019
  • 56 - 0,1 mm del día 27/06/2019
  • 57 - 0,3 mm del día 26/06/2019
  • 58 - 2 mm del día 25/06/2019
  • 59 - 1,4 mm del día 24/06/2019
  • 60 - 1,4 mm del día 23/06/2019

||Volver al inicio de la página||


 

|| Temperatura Ambiente|| Humedad relativa|| Velocidad y dirección del viento|| Precipitación|| Radiación Solar Global y PAR|| Temperatura y humedad del suelo|| Más información|| Volver a la página principal|| Volver al inicio de la página||


Estación Meteorológica de la Universidad de Murcia
http://estacion.um.es/
Informacion actualizada a: 22/08/2019 a las 06:28:00